AirNav   Pilot Hours Calculator
 
 1644 users online  

KMKV Marksville Municipal Airport
Marksville, Louisiana, USA

GOING TO MARKSVILLE?


FAA INFORMATION EFFECTIVE 20 MAY 2021

Location

FAA Identifier: MKV
Lat/Long: 31-05-40.8000N 092-04-08.6000W
31-05.680000N 092-04.143333W
31.0946667,-92.0690556
(estimated)
Elevation: 78.7 ft. / 24.0 m (surveyed)
Variation: 02E (2005)
From city: 1 mile S of MARKSVILLE, LA
Time zone: UTC -5 (UTC -6 during Standard Time)
Zip code: 71350

Airport Operations

Airport use: Open to the public
Activation date: 04/1950
Control tower: no
ARTCC: HOUSTON CENTER
FSS: DE RIDDER FLIGHT SERVICE STATION
NOTAMs facility: DRI (NOTAM-D service available)
Attendance: MON-FRI 0700-1400
Wind indicator: lighted
Segmented circle: yes
Lights: ACTVT REIL RWY 4 & 22; MIRL RWY 04/22 - CTAF. REIL RWY 4 & 22; MIRL RWY 04/22 PRESET LOW INTST; TO INCR INTST - CTAF.
Beacon: white-green (lighted land airport)
Operates sunset to sunrise.

Airport Communications

CTAF: 122.9
POLK APPROACH: 125.4
POLK DEPARTURE: 125.4

Nearby radio navigation aids

VOR radial/distance  VOR name  Freq  Var
AEXr111/24.2ALEXANDRIA VORTAC116.1003E

 
NDB name  Hdg/Dist  Freq  Var  ID
DURALDE029/37.626302EECY . -.-. -.--

Airport Services

Fuel available: 100LL
100LL:FUEL AVBL 24/7 WITH CC.
Parking: tiedowns
Airframe service: NONE
Powerplant service: NONE
Bottled oxygen: NONE
Bulk oxygen: NONE

Runway Information

Runway 4/22

Dimensions: 3799 x 75 ft. / 1158 x 23 m
Surface: asphalt, in good condition
Weight bearing capacity: 
Single wheel: 19.0
Runway edge lights: medium intensity
RUNWAY 4  RUNWAY 22
Latitude: 31-05.456558N31-05.901805N
Longitude: 092-04.399788W092-03.887283W
Elevation: 74.1 ft.78.5 ft.
Traffic pattern: leftleft
Runway heading: 043 magnetic, 045 true223 magnetic, 225 true
Markings: nonprecision, in good conditionnonprecision, in good condition
Visual slope indicator: 2-light PAPI on left (3.00 degrees glide path)
RWY 04 PAPI OTS.
2-light PAPI on left (3.00 degrees glide path)
Runway end identifier lights: yesyes
Touchdown point: yes, no lightsyes, no lights
Obstructions: none26 ft. pole, marked, 671 ft. from runway, 58 ft. left of centerline, 18:1 slope to clear

Airport Ownership and Management from official FAA records

Ownership: Publicly-owned
Owner: AVOYELLES PARISH AIRPORT AUTHORITY
312 NORTH MAIN ST
MARKSVILLE, LA 71351
Phone 318-253-9208
Manager: JONATHAN KNOLL
312 NORTH MAIN ST, 312 MAIN ST
MARKSVILLE, LA 71351
Phone 225-266-4196

Airport Operational Statistics

Aircraft based on the field: 16
Single engine airplanes: 16
    
Aircraft operations: avg 28/day *
79% local general aviation
21% transient general aviation
* for 12-month period ending 21 September 2020

Additional Remarks

NE APN PAVEMENT FAILED.
AERIAL SPRAYING INVOF ARPT.
NE APN HLDG PSN NSTD.
FOR CD CTC POLK APCH AT 337-531-2352.

Instrument Procedures

NOTE: All procedures below are presented as PDF files. If you need a reader for these files, you should download the free Adobe Reader.

NOT FOR NAVIGATION. Please procure official charts for flight.
FAA instrument procedures published for use from 20 May 2021 at 0901Z to 17 June 2021 at 0900z.

 
IAPs - Instrument Approach Procedures
RNAV (GPS) RWY 04   download (191KB)
VOR-A   download (190KB)
NOTE: Special Take-Off Minimums/Departure Procedures apply   download (116KB)

Other nearby airports with instrument procedures:

2R6 - Bunkie Municipal Airport (12 nm SW)
KESF - Esler Regional Airport (21 nm NW)
KAEX - Alexandria International Airport (28 nm NW)
KOPL - St Landry Parish Airport-Ahart Field (32 nm S)
KHZR - False River Regional Airport (38 nm SE)
 
Loc | Ops | Rwys | IFR | FBO | Links
Com | Nav | Svcs | Stats | Notes
Area around KMKV (Marksville Municipal Airport)
 
Road maps at: MapQuest Bing Google
 
Aerial photo
WARNING: Photo may not be current or correct
Aerial photo of KMKV (Marksville Municipal Airport)
Do you have a better or more recent aerial photo of Marksville Municipal Airport that you would like to share? If so, please send us your photo.

 
Sectional chart

 
Airport distance calculator
Flying to Marksville Municipal Airport? Find the distance to fly.

From to KMKV

Sunrise and sunset
Times for 14-Jun-2021
 Local
(UTC-5)
 Zulu
(UTC)
Morning civil twilight05:3710:37
Sunrise06:0511:05
Sunset20:1201:12
Evening civil twilight20:4001:40

Current date and time
Zulu (UTC)  14-Jun-2021 17:09:28
Local (UTC-5)  14-Jun-2021 12:09:28
 
METAR
KESF 
21nm NW 
141653Z AUTO 08007KT 10SM CLR 32/22 A2996 RMK AO2 SLP143 T03170222
KAEX 
29nm NW 
141653Z 00000KT 10SM CLR 32/23 A2995 RMK AO2 SLP142 T03220233
KOPL 
32nm S 
141655Z AUTO 00000KT 10SM CLR 31/25 A2997 RMK AO2 T03130250
KHZR 
38nm SE 
141655Z AUTO 09003KT 10SM SCT020 29/24 A2997 RMK AO2 T02850237
KACP 
38nm SW 
141655Z AUTO 00000KT 10SM SCT027 31/23 A2997 RMK AO2
K0R4 
40nm NE 
141655Z AUTO 04007KT 10SM CLR 31/22 A2996 RMK AO2 T03110223
TAF
KAEX 
29nm NW 
141137Z 1412/1512 00000KT P6SM SCT180 FM141400 VRB03KT P6SM FEW045 SCT250 FM141800 VRB04KT P6SM VCTS FEW045CB SCT180 FM150200 00000KT P6SM SCT180
NOTAMs
Click for the latest NOTAMs
NOTAMs are issued by the DoD/FAA and will open in a separate window not controlled by AirNav.

 

 
 

FBO, Fuel Providers, and Aircraft Ground Support

  
 Business Name 
 
 Contact 
 
 Services / Description 
 
Fuel Prices
 
Comments
  
Marksville Municipal Airport 318-240-3088
318-253-7291
[email]
Airport management, Aviation fuel, Aircraft parking (ramp or tiedown)

More info about Marksville Municipal Airport
Phillips 66
100LL
SS $3.91 
 Updated 27-May-2021
 
   write
SS=Self service
Update Fuel Prices
 

Would you like to see your business listed on this page?

 If your business provides an interesting product or service to pilots, flight crews, aircraft, or users of the Marksville Municipal Airport, you should consider listing it here.  To start the listing process, click on the button below
 
Add a business
 

Other Pages about Marksville Municipal Airport

Update a link
 
Copyright © AirNav, LLC. All rights reserved. Privacy Policy  Contact